FW6610 Weather Reports


Display with metric or nautical units.
time (UTC)temp
F
wind
direction
speed
MPH
gust
MPH
rain 1hr
in
rain 24hr
in
rain mn
in
humidity
%
barometer
mb
20260902164559 71 155 0.0 2.0 0.00 0.28 0.00 83 1021.7
20260902164031 70 0 0.0 2.0 0.00 0.28 0.00 84 1021.7
20260902163531 70 311 0.0 2.0 0.00 0.28 0.00 82 1021.8
20260902163050 70 223 0.0 2.0 0.00 0.28 0.00 82 1021.9
20260902162529 71 0 0.0 1.0 0.00 0.28 0.00 85 1022.1
20260902162030 71 0 0.0 1.0 0.00 0.28 0.00 87 1022.0
20260902161558 70 134 0.0 1.0 0.00 0.28 0.00 85 1022.2
20260902161029 69 0 0.0 1.0 0.00 0.28 0.00 87 1022.1
20260902160528 69 210 0.0 1.0 0.00 0.28 0.00 87 1022.1
20260902160042 69 0 0.0 1.0 0.00 0.28 0.00 85 1022.3
20260902155528 69 0 0.0 1.0 0.00 0.28 0.00 85 1022.3
20260902155028 69 0 0.0 3.0 0.00 0.28 0.00 88 1022.3
20260902154557 68 0 0.0 3.0 0.00 0.28 0.00 87 1022.3
20260902154027 68 0 0.0 2.0 0.00 0.28 0.00 86 1022.2
20260902153529 68 0 0.0 2.0 0.00 0.28 0.00 88 1022.4
20260902153047 68 200 0.0 2.0 0.00 0.28 0.00 87 1022.4
20260902152528 68 0 0.0 3.0 0.00 0.28 0.00 89 1022.3
20260902152028 68 225 1.0 3.0 0.00 0.28 0.00 86 1022.4
20260902151545 68 0 0.0 0.0 0.00 0.28 0.00 90 1022.4
20260902151026 67 0 0.0 0.0 0.00 0.28 0.00 88 1022.7
20260902150529 67 0 0.0 0.0 0.00 0.28 0.00 89 1022.7
20260902150043 67 0 0.0 0.0 0.00 0.28 0.00 91 1022.8
20260902145529 66 0 0.0 0.0 0.00 0.31 0.00 91 1022.7
20260902145030 66 0 0.0 0.0 0.00 0.31 0.00 91 1022.7
20260902144550 66 0 0.0 0.0 0.00 0.31 0.00 91 1022.6
20260902144027 66 0 0.0 0.0 0.00 0.31 0.00 92 1022.6
20260902143531 66 0 0.0 0.0 0.00 0.31 0.00 92 1022.7
20260902143046 65 0 0.0 0.0 0.00 0.31 0.00 94 1022.7
20260902142528 65 0 0.0 1.0 0.00 0.31 0.00 94 1022.9
20260902142028 65 0 0.0 1.0 0.00 0.31 0.00 93 1022.8
20260902141551 65 0 0.0 1.0 0.00 0.31 0.00 94 1022.8
20260902141032 65 0 0.0 1.0 0.00 0.31 0.00 94 1022.6
20260902140528 64 312 0.0 1.0 0.00 0.31 0.00 95 1022.6
20260902140048 64 0 0.0 1.0 0.00 0.31 0.00 96 1022.6
20260902135527 64 0 0.0 1.0 0.00 0.37 0.00 96 1022.5
20260902135027 64 336 0.0 1.0 0.00 0.37 0.00 96 1022.6
20260902134548 64 0 0.0 2.0 0.00 0.37 0.00 97 1022.3
20260902134029 63 0 0.0 2.0 0.00 0.37 0.00 97 1022.3
20260902133529 63 260 0.0 2.0 0.00 0.37 0.00 97 1022.3
20260902133057 63 0 0.0 2.0 0.00 0.37 0.00 98 1022.3
20260902132530 63 0 0.0 1.0 0.00 0.37 0.00 99 1022.1
20260902132028 63 274 0.0 1.0 0.00 0.37 0.00 98 1022.1
20260902131546 63 0 0.0 1.0 0.00 0.37 0.00 99 1022.0
20260902131029 63 261 0.0 1.0 0.00 0.37 0.00 99 1022.0
20260902130532 62 0 0.0 0.0 0.00 0.37 0.00 99 1022.2
20260902130052 62 0 0.0 1.0 0.00 0.37 0.00 99 1022.3
20260902125528 62 0 0.0 1.0 0.00 1.58 0.00 99 1022.3
20260902125031 62 0 0.0 0.0 0.00 1.58 0.00 99 1022.2
20260902124605 62 0 0.0 0.0 0.00 1.58 0.00 99 1022.2
20260902124031 62 0 0.0 0.0 0.00 1.58 0.00 99 1022.2
20260902123529 62 0 0.0 0.0 0.00 1.58 0.00 99 1022.2
20260902123054 62 0 0.0 0.0 0.00 1.58 0.00 99 1022.2
20260902122532 62 0 0.0 0.0 0.00 1.58 0.00 99 1022.1
20260902122030 62 0 0.0 0.0 0.00 1.58 0.00 99 1022.1
20260902121551 62 0 0.0 0.0 0.00 1.58 0.00 99 1022.0
20260902121031 62 0 0.0 0.0 0.00 1.58 0.00 99 1022.0
20260902120528 61 0 0.0 0.0 0.00 1.58 0.00 99 1022.1
20260902120051 61 0 0.0 0.0 0.00 1.58 0.00 99 1022.1
20260902115529 61 0 0.0 0.0 0.00 2.02 0.00 99 1022.0
20260902115030 61 0 0.0 0.0 0.00 2.02 0.00 99 1022.0
20260902114546 61 0 0.0 0.0 0.00 2.02 0.00 99 1022.1
20260902114029 61 0 0.0 0.0 0.00 2.02 0.00 99 1022.2
20260902113531 61 0 0.0 0.0 0.00 2.02 0.00 99 1022.3
20260902113057 61 0 0.0 0.0 0.00 2.02 0.00 99 1022.4
20260902112530 61 0 0.0 0.0 0.00 2.02 0.00 99 1022.5
20260902112030 61 0 0.0 0.0 0.00 2.02 0.00 99 1022.4
20260902111556 61 0 0.0 0.0 0.00 2.02 0.00 99 1022.5
20260902111029 60 0 0.0 0.0 0.00 2.02 0.00 99 1022.5
20260902110531 60 0 0.0 0.0 0.00 2.02 0.00 99 1022.4
20260902110052 60 0 0.0 0.0 0.00 2.02 0.00 99 1022.3
20260902105529 60 0 0.0 0.0 0.00 2.10 0.00 99 1022.2
20260902105029 60 0 0.0 0.0 0.00 2.10 0.00 99 1022.1
20260902104550 60 0 0.0 1.0 0.00 2.10 0.00 99 1022.1
20260902104031 60 0 0.0 1.0 0.00 2.10 0.00 99 1022.1
20260902103530 60 0 0.0 0.0 0.00 2.10 0.00 99 1022.1
20260902103047 60 0 0.0 0.0 0.00 2.10 0.00 99 1022.1
20260902102529 60 0 0.0 0.0 0.00 2.10 0.00 99 1022.0
20260902102029 60 0 0.0 0.0 0.00 2.10 0.00 99 1022.1
20260902101556 60 0 0.0 0.0 0.00 2.10 0.00 99 1021.9
20260902101029 60 0 0.0 0.0 0.00 2.10 0.00 99 1021.7
20260902100530 60 0 0.0 0.0 0.00 2.10 0.00 99 1021.7
20260902100050 60 0 0.0 0.0 0.00 2.10 0.00 99 1021.7
20260902095530 60 0 0.0 0.0 0.00 2.15 0.00 99 1021.9
20260902095030 60 0 0.0 0.0 0.00 2.15 0.00 99 1021.8
20260902094546 60 0 0.0 0.0 0.00 2.15 0.00 99 1021.6
20260902094030 60 0 0.0 0.0 0.00 2.15 0.00 99 1021.6
20260902093529 60 0 0.0 0.0 0.00 2.15 0.00 99 1021.5
20260902093057 60 0 0.0 0.0 0.00 2.15 0.00 99 1021.5
20260902092529 60 0 0.0 0.0 0.00 2.15 0.00 99 1021.4
20260902092030 60 0 0.0 0.0 0.00 2.15 0.00 99 1021.3
20260902091553 60 0 0.0 0.0 0.00 2.15 0.00 99 1021.4
20260902091030 60 0 0.0 0.0 0.00 2.15 0.00 99 1021.2
20260902090530 60 0 0.0 0.0 0.00 2.15 0.00 99 1021.3
20260902090054 60 0 0.0 1.0 0.00 2.15 0.00 99 1021.1
20260902085529 60 0 0.0 1.0 0.00 2.19 0.00 99 1021.2
20260902085030 60 0 0.0 1.0 0.00 2.19 0.00 99 1021.2
20260902084557 60 0 0.0 0.0 0.00 2.19 0.00 99 1021.2
20260902084031 60 0 0.0 0.0 0.00 2.19 0.00 99 1021.2
20260902083530 60 0 0.0 1.0 0.00 2.19 0.00 99 1021.3
20260902083052 60 0 0.0 1.0 0.00 2.19 0.00 99 1021.1
20260902082531 60 0 0.0 1.0 0.00 2.19 0.00 99 1021.1
20260902082028 60 0 0.0 1.0 0.00 2.19 0.00 99 1020.9
20260902081609 60 0 0.0 1.0 0.00 2.19 0.00 99 1020.9
20260902081030 60 0 0.0 0.0 0.00 2.19 0.00 99 1020.9
20260902080530 60 0 0.0 1.0 0.00 2.19 0.00 99 1020.8
20260902080044 60 0 0.0 1.0 0.00 2.19 0.00 99 1021.0
20260902075529 60 287 0.0 1.0 0.00 2.19 0.00 99 1020.9
20260902075030 60 0 0.0 0.0 0.00 2.19 0.00 99 1020.9
20260902074556 60 0 0.0 0.0 0.00 2.19 0.00 99 1020.9
20260902074031 60 0 0.0 0.0 0.00 2.19 0.00 99 1021.0
20260902073531 60 0 0.0 0.0 0.00 2.19 0.00 99 1021.1
20260902073050 60 0 0.0 0.0 0.00 2.19 0.00 99 1020.9
20260902072529 60 0 0.0 0.0 0.00 2.19 0.00 99 1021.2
20260902072030 60 0 0.0 0.0 0.00 2.19 0.00 99 1021.2
20260902071554 60 0 0.0 0.0 0.00 2.19 0.00 99 1021.0
20260902071030 60 0 0.0 0.0 0.00 2.19 0.00 99 1021.0
20260902070530 60 0 0.0 1.0 0.00 2.19 0.00 99 1021.0
20260902070135 60 0 0.0 1.0 0.00 2.19 0.00 99 1021.1
20260902065531 60 0 0.0 1.0 0.00 2.19 0.00 99 1021.3
20260902065030 60 0 0.0 0.0 0.00 2.19 0.00 99 1021.2
20260902064601 60 0 0.0 0.0 0.00 2.19 0.00 99 1021.1
20260902064030 60 0 0.0 1.0 0.00 2.19 0.00 99 1021.3
20260902063532 61 0 0.0 1.0 0.00 2.19 0.00 99 1021.3
20260902063054 61 0 0.0 0.0 0.00 2.19 0.00 99 1021.2
20260902062530 61 0 0.0 0.0 0.00 2.19 0.00 99 1021.2
20260902062031 61 0 0.0 0.0 0.00 2.19 0.00 99 1021.1
20260902061549 61 0 0.0 1.0 0.00 2.19 0.00 99 1021.1
20260902061030 60 0 0.0 1.0 0.00 2.19 0.00 99 1021.2
20260902060530 61 0 0.0 0.0 0.00 2.19 0.00 99 1021.1
20260902060108 61 0 0.0 0.0 0.00 2.19 0.00 99 1021.0
20260902055527 61 0 0.0 0.0 0.00 2.20 0.00 99 1020.9
20260902055029 61 0 0.0 0.0 0.00 2.20 0.00 99 1021.0
20260902054552 61 0 0.0 0.0 0.00 2.20 0.00 99 1021.0
20260902054029 61 0 0.0 0.0 0.00 2.20 0.00 99 1020.9
20260902053531 61 0 0.0 0.0 0.00 2.20 0.00 99 1020.9
20260902053052 61 0 0.0 0.0 0.00 2.20 0.00 99 1020.7
20260902052531 61 0 0.0 0.0 0.00 2.20 0.00 99 1021.0
20260902052029 61 0 0.0 0.0 0.00 2.20 0.00 99 1020.9
20260902051546 61 0 0.0 0.0 0.00 2.20 0.00 99 1020.7
20260902051027 61 0 0.0 0.0 0.00 2.20 0.00 99 1020.8
20260902050531 61 0 0.0 0.0 0.00 2.20 0.00 99 1020.8
20260902045527 61 0 0.0 2.0 0.00 2.20 0.00 99 1020.6
20260902045030 61 0 0.0 2.0 0.00 2.20 0.00 99 1020.6
20260902044607 61 0 0.0 0.0 0.00 2.20 0.00 99 1020.7
20260902044029 61 0 0.0 0.0 0.00 2.20 0.00 99 1020.6
20260902043529 61 0 0.0 1.0 0.00 2.20 0.00 99 1020.6
20260902043049 61 0 0.0 1.0 0.00 2.20 0.00 99 1020.4
20260902042529 61 0 0.0 1.0 0.00 2.20 0.00 99 1020.3
20260902042031 61 0 0.0 1.0 0.00 2.20 0.00 99 1020.4
20260902041545 62 0 0.0 0.0 0.00 2.20 0.00 99 1020.2
20260902041035 62 0 0.0 1.0 0.00 2.20 0.00 99 1020.3
20260902040530 62 0 0.0 1.0 0.00 2.20 0.00 99 1020.1
20260902040052 62 0 0.0 0.0 0.00 2.20 0.00 99 1020.2
20260902035534 61 0 0.0 0.0 0.00 2.20 2.20 99 1020.2
20260902035028 61 0 0.0 0.0 0.00 2.20 2.20 99 1019.9
20260902034548 61 0 0.0 0.0 0.00 2.20 2.20 99 1019.9
20260902034030 61 0 0.0 0.0 0.00 2.20 2.20 99 1019.9
20260902033531 61 0 0.0 0.0 0.00 2.20 2.20 99 1019.8
20260902033100 61 0 0.0 0.0 0.00 2.20 2.20 99 1019.7
20260902032529 61 0 0.0 0.0 0.00 2.20 2.20 99 1019.7
20260902032028 61 0 0.0 1.0 0.00 2.20 2.20 99 1019.7
20260902031559 61 0 0.0 1.0 0.00 2.20 2.20 99 1019.7
20260902031030 61 0 0.0 0.0 0.00 2.20 2.20 99 1019.8
20260902030532 61 0 0.0 0.0 0.00 2.20 2.20 99 1019.6
20260902030042 61 0 0.0 0.0 0.00 2.20 2.20 99 1019.7
20260902025531 61 0 0.0 0.0 0.00 2.20 2.20 99 1019.4
20260902025029 61 0 0.0 0.0 0.00 2.20 2.20 99 1019.6
20260902024558 61 0 0.0 0.0 0.00 2.20 2.20 99 1019.6
20260902024029 61 0 0.0 0.0 0.00 2.20 2.20 99 1019.7
20260902023530 61 0 0.0 0.0 0.00 2.20 2.20 99 1019.9
20260902023050 61 0 0.0 1.0 0.00 2.20 2.20 99 1019.8
20260902022530 61 0 0.0 1.0 0.00 2.20 2.20 99 1019.7
20260902022030 61 250 0.0 1.0 0.00 2.20 2.20 99 1019.9
20260902021550 61 250 0.0 0.0 0.00 2.20 2.20 99 1019.9
20260902021030 61 0 0.0 0.0 0.00 2.20 2.20 99 1019.7
20260902020530 61 0 0.0 0.0 0.00 2.20 2.20 99 1019.7
20260902020043 62 0 0.0 0.0 0.00 2.20 2.20 99 1019.9
20260902015528 62 0 0.0 0.0 0.00 2.20 2.20 99 1019.9
20260902015030 62 0 0.0 0.0 0.00 2.20 2.20 99 1019.9
20260902014552 62 0 0.0 0.0 0.00 2.20 2.20 99 1019.9
20260902014027 61 0 0.0 0.0 0.00 2.20 2.20 99 1019.9
20260902013530 62 0 0.0 0.0 0.00 2.20 2.20 99 1019.8
20260902013049 61 0 0.0 0.0 0.00 2.20 2.20 99 1019.8
20260902012529 61 0 0.0 0.0 0.00 2.20 2.20 99 1019.7
20260902012029 61 0 0.0 0.0 0.00 2.20 2.20 99 1019.8
20260902011546 61 0 0.0 0.0 0.00 2.20 2.20 99 1019.9
20260902011030 61 0 0.0 0.0 0.00 2.20 2.20 99 1019.7
20260902010529 61 0 0.0 0.0 0.00 2.20 2.20 99 1019.6
20260902010052 61 0 0.0 0.0 0.00 2.20 2.20 99 1019.6
20260902005529 61 0 0.0 0.0 0.00 2.20 2.20 99 1019.4
20260902005029 61 0 0.0 0.0 0.00 2.20 2.20 99 1019.4
20260902004553 61 0 0.0 0.0 0.00 2.20 2.20 99 1019.3
20260902004029 61 0 0.0 0.0 0.00 2.20 2.20 99 1019.1
20260902003530 61 0 0.0 0.0 0.00 2.20 2.20 99 1019.3
20260902003048 61 0 0.0 0.0 0.00 2.20 2.20 99 1019.1
20260902002533 61 0 0.0 0.0 0.00 2.20 2.20 99 1019.2
20260902002029 62 0 0.0 0.0 0.00 2.20 2.20 99 1019.1
20260902001550 61 0 0.0 0.0 0.00 2.20 2.20 99 1019.0
20260902001032 61 0 0.0 0.0 0.00 2.20 2.20 99 1019.0
20260902000531 61 0 0.0 0.0 0.00 2.20 2.20 99 1018.9
20260902000049 62 0 0.0 0.0 0.00 2.20 2.20 99 1018.9
20260901235531 61 0 0.0 0.0 0.00 2.20 2.20 99 1018.7
20260901235029 61 0 0.0 0.0 0.00 2.20 2.20 99 1018.9
20260901234551 61 0 0.0 0.0 0.00 2.20 2.20 99 1018.9
20260901234030 61 0 0.0 0.0 0.00 2.20 2.20 99 1018.9
20260901233527 61 0 0.0 0.0 0.00 2.20 2.20 99 1018.8
20260901233049 61 0 0.0 0.0 0.00 2.20 2.20 99 1018.9
20260901232530 61 0 0.0 0.0 0.00 2.20 2.20 99 1018.9
20260901232031 61 0 0.0 0.0 0.00 2.20 2.20 99 1018.9
20260901231544 61 0 0.0 0.0 0.00 2.20 2.20 99 1018.9
20260901231029 61 0 0.0 0.0 0.00 2.20 2.20 99 1019.0
20260901230529 62 0 0.0 0.0 0.00 2.20 2.20 99 1018.9
20260901230053 62 0 0.0 0.0 0.00 2.20 2.20 99 1019.0
20260901225529 62 0 0.0 0.0 0.00 2.20 2.20 99 1019.1
20260901225028 62 0 0.0 0.0 0.00 2.20 2.20 99 1019.1
20260901224546 62 0 0.0 0.0 0.00 2.20 2.20 99 1018.9
20260901224033 62 0 0.0 0.0 0.00 2.20 2.20 99 1018.9
20260901223530 62 0 0.0 0.0 0.00 2.20 2.20 99 1018.8
20260901223049 62 0 0.0 0.0 0.00 2.20 2.20 99 1018.8
20260901222529 62 0 0.0 0.0 0.00 2.20 2.20 99 1018.7
20260901222029 62 0 0.0 0.0 0.00 2.20 2.20 99 1018.7
20260901221545 62 0 0.0 0.0 0.00 2.20 2.20 99 1018.5
20260901221030 62 0 0.0 0.0 0.00 2.20 2.20 98 1018.5
20260901220528 62 0 0.0 0.0 0.00 2.20 2.20 98 1018.6
20260901220051 62 0 0.0 0.0 0.00 2.20 2.20 98 1018.6
20260901215529 62 0 0.0 0.0 0.00 2.20 2.20 98 1018.7
20260901215030 62 0 0.0 0.0 0.00 2.20 2.20 98 1018.5
20260901214546 63 170 0.0 0.0 0.00 2.20 2.20 98 1018.5
20260901214028 63 0 0.0 0.0 0.00 2.20 2.20 98 1018.6
20260901213530 63 0 0.0 0.0 0.00 2.20 2.20 98 1018.5
20260901213111 63 0 0.0 0.0 0.00 2.20 2.20 98 1018.3
20260901212528 63 0 0.0 1.0 0.00 2.20 2.20 98 1018.3
20260901212028 63 172 0.0 1.0 0.00 2.20 2.20 98 1018.2
20260901211544 63 172 0.0 1.0 0.00 2.20 2.20 98 1018.3
20260901211029 63 141 0.0 3.0 0.00 2.20 2.20 98 1018.3
20260901210529 63 0 0.0 3.0 0.00 2.20 2.20 98 1018.3
20260901210052 63 0 0.0 0.0 0.00 2.20 2.20 98 1018.2
20260901205530 63 0 0.0 1.0 0.00 2.20 2.20 98 1018.1
20260901205028 63 0 0.0 2.0 0.01 2.20 2.20 98 1018.1
20260901204551 64 151 0.0 2.0 0.01 2.20 2.20 98 1018.2
20260901204029 64 0 0.0 1.0 0.01 2.20 2.20 98 1018.1
20260901203531 64 0 0.0 1.0 0.01 2.20 2.20 98 1018.0
20260901203118 64 0 0.0 3.0 0.01 2.20 2.20 98 1018.0
20260901202529 64 0 0.0 8.0 0.01 2.20 2.20 98 1017.9
20260901202030 64 149 1.0 8.0 0.01 2.20 2.20 98 1017.9
20260901201553 65 136 1.0 3.0 0.01 2.20 2.20 98 1017.8
20260901201031 65 143 0.0 4.0 0.01 2.20 2.20 99 1017.6
20260901200529 65 0 0.0 4.0 0.01 2.20 2.20 98 1017.6
20260901200053 65 259 0.0 4.0 0.01 2.20 2.20 98 1017.6
20260901195529 65 218 1.0 2.0 0.01 2.20 2.20 98 1017.5
20260901195029 66 136 0.0 2.0 0.00 2.19 2.19 99 1017.4
20260901194546 66 0 0.0 1.0 0.00 2.19 2.19 99 1017.4
20260901194029 66 0 0.0 1.0 0.00 2.19 2.19 99 1017.4
20260901193529 66 0 0.0 2.0 0.00 2.19 2.19 99 1017.3
20260901193047 66 235 0.0 2.0 0.00 2.19 2.19 99 1017.2
20260901192529 66 94 0.0 2.0 0.01 2.19 2.19 99 1017.2
20260901192030 66 0 0.0 5.0 0.01 2.19 2.19 99 1017.2
20260901191551 66 257 1.0 5.0 0.01 2.19 2.19 99 1017.3
20260901191028 66 261 1.0 5.0 0.01 2.19 2.19 99 1017.2
20260901190528 66 0 1.0 3.0 0.02 2.19 2.19 99 1017.1
20260901185527 66 315 0.0 3.0 0.02 2.19 2.19 99 1017.2
20260901185028 66 0 0.0 4.0 0.02 2.19 2.19 99 1017.2
20260901184551 66 0 0.0 4.0 0.02 2.19 2.19 99 1017.3
20260901184030 66 307 0.0 3.0 0.02 2.19 2.19 99 1017.3
20260901183530 66 279 0.0 3.0 0.02 2.19 2.19 99 1017.3
20260901183044 66 229 0.0 5.0 0.02 2.19 2.19 99 1017.2
20260901182529 66 311 2.0 5.0 0.01 2.18 2.18 99 1017.2
20260901182029 66 0 0.0 1.0 0.01 2.18 2.18 99 1017.2
20260901181546 66 289 0.0 1.0 0.01 2.18 2.18 99 1017.2
20260901181029 66 152 0.0 2.0 0.01 2.18 2.18 99 1017.2
20260901180530 66 288 0.0 2.0 0.00 2.17 2.17 99 1017.1
20260901180057 66 325 0.0 1.0 0.00 2.17 2.17 99 1017.0
20260901175529 66 0 0.0 1.0 0.01 2.17 2.17 99 1017.0
20260901175031 66 309 0.0 1.0 0.01 2.17 2.17 99 1017.0
20260901174551 66 0 0.0 0.0 0.01 2.17 2.17 99 1017.0
20260901174027 66 0 0.0 1.0 0.01 2.17 2.17 99 1016.9
20260901173529 66 0 0.0 1.0 0.01 2.17 2.17 99 1016.9
20260901173048 66 294 0.0 2.0 0.02 2.17 2.17 99 1016.9
20260901172531 66 0 0.0 2.0 0.03 2.17 2.17 99 1016.7
20260901172030 66 0 0.0 1.0 0.11 2.17 2.17 99 1016.7
20260901171602 66 0 0.0 1.0 0.20 2.17 2.17 99 1016.7
20260901171027 66 0 0.0 1.0 0.23 2.17 2.17 99 1016.7
20260901170531 66 0 0.0 1.0 0.24 2.17 2.17 99 1016.7
20260901170104 66 0 0.0 1.0 0.25 2.17 2.17 99 1016.7
20260901165529 66 304 0.0 0.0 0.24 2.16 2.16 99 1016.5
20260901165029 66 0 0.0 0.0 0.24 2.16 2.16 99 1016.5